When you browse on this site, cookies collect data to enhance your experience and personalize the content and advertising you see.
Visit our Privacy Policy to learn more. By continuing to use the site, you agree to this use of cookies and data.
  • In Hungary
  • List of Countries
  • For 7 days
  • Water Temperature
  • Weather Map
  • News
  • Weather Widgets
  • user-avatar
    Login

    Hourly Weather Djambala

    Today, 13 November, Wednesday

    Time Temperature Precipitation Wind Pressure Humidity
    00:00 +23°C° 2.3 mm 1 mps 693 mmHg 93%
    01:00 +23°C° 2.3 mm 1 mps 693 mmHg 93%
    02:00 +23°C° 0.1 mm 1 mps 692 mmHg 94%
    03:00 +22°C° 0.1 mm 1 mps 692 mmHg 95%
    04:00 +22°C° 0.1 mm 1 mps 692 mmHg 95%
    05:00 +22°C° 0 mm 1 mps 693 mmHg 94%
    06:00 +23°C° 0 mm 1 mps 693 mmHg 93%
    07:00 +23°C° 0 mm 1 mps 694 mmHg 92%
    08:00 +25°C° 0.6 mm 1 mps 694 mmHg 86%
    09:00 +26°C° 0.6 mm 1 mps 694 mmHg 81%
    10:00 +27°C° 0.6 mm 1 mps 694 mmHg 76%
    11:00 +28°C° 1.4 mm 1 mps 694 mmHg 72%
    12:00 +29°C° 1.4 mm 1 mps 693 mmHg 69%
    13:00 +28°C° 1.4 mm 0 mps 693 mmHg 65%
    14:00 +29°C° 0.9 mm 1 mps 692 mmHg 70%
    15:00 +28°C° 0.9 mm 1 mps 692 mmHg 75%
    16:00 +27°C° 0.9 mm 2 mps 691 mmHg 80%
    17:00 +26°C° 0.5 mm 1 mps 692 mmHg 83%
    18:00 +25°C° 0.5 mm 1 mps 692 mmHg 86%
    19:00 +24°C° 0.5 mm 1 mps 692 mmHg 90%
    20:00 +23°C° 0 mm 1 mps 693 mmHg 91%
    21:00 +23°C° 0 mm 1 mps 693 mmHg 91%
    22:00 +23°C° 0 mm 1 mps 693 mmHg 92%
    23:00 +23°C° 0 mm 1 mps 693 mmHg 93%

    Tomorrow, 14 November, Thursday

    Time Temperature Precipitation Wind Pressure Humidity
    00:00 +21°C° 0 mm 0 mps 693 mmHg 94%
    01:00 +20°C° 0 mm 0 mps 692 mmHg 95%
    02:00 +20°C° 0 mm 0 mps 692 mmHg 95%
    03:00 +20°C° 0 mm 0 mps 692 mmHg 95%
    04:00 +20°C° 0 mm 0 mps 692 mmHg 95%
    05:00 +21°C° 0 mm 0 mps 692 mmHg 93%
    06:00 +21°C° 0 mm 0 mps 693 mmHg 91%
    07:00 +22°C° 0 mm 0 mps 694 mmHg 89%
    08:00 +24°C° 0.3 mm 0 mps 694 mmHg 81%
    09:00 +26°C° 0.3 mm 0 mps 694 mmHg 73%
    10:00 +28°C° 0.3 mm 0 mps 694 mmHg 65%
    11:00 +30°C° 2.1 mm 1 mps 694 mmHg 66%
    12:00 +30°C° 2.1 mm 1 mps 693 mmHg 67%
    13:00 +29°C° 2.1 mm 1 mps 692 mmHg 68%
    14:00 +29°C° 1.7 mm 1 mps 692 mmHg 71%
    15:00 +28°C° 1.7 mm 1 mps 691 mmHg 73%
    16:00 +28°C° 1.7 mm 1 mps 691 mmHg 76%
    17:00 +25°C° 0.8 mm 0 mps 691 mmHg 79%
    18:00 +23°C° 0.8 mm 0 mps 692 mmHg 82%
    19:00 +22°C° 0.8 mm 0 mps 692 mmHg 85%
    20:00 +22°C° 0 mm 0 mps 692 mmHg 86%
    21:00 +22°C° 0 mm 0 mps 693 mmHg 86%
    22:00 +21°C° 0 mm 0 mps 693 mmHg 87%
    23:00 +21°C° 0.5 mm 0 mps 693 mmHg 88%

    Day after tomorrow, 15 November, Friday

    Time Temperature Precipitation Wind Pressure Humidity
    00:00 +21°C° 0.5 mm 0 mps 693 mmHg 90%
    01:00 +21°C° 0.5 mm 0 mps 692 mmHg 91%
    02:00 +20°C° 1 mm 0 mps 692 mmHg 92%
    03:00 +22°C° 1 mm 1 mps 692 mmHg 93%
    04:00 +22°C° 1 mm 1 mps 692 mmHg 95%
    05:00 +22°C° 0.2 mm 1 mps 692 mmHg 94%
    06:00 +23°C° 0.2 mm 1 mps 693 mmHg 94%
    07:00 +23°C° 0.2 mm 1 mps 694 mmHg 94%
    08:00 +24°C° 0.3 mm 1 mps 694 mmHg 90%
    09:00 +25°C° 0.3 mm 2 mps 694 mmHg 87%
    10:00 +26°C° 0.3 mm 2 mps 694 mmHg 83%
    11:00 +27°C° 1 mm 0 mps 693 mmHg 71%
    12:00 +30°C° 1 mm 1 mps 693 mmHg 68%
    13:00 +30°C° 1 mm 1 mps 692 mmHg 65%
    14:00 +29°C° 2 mm 1 mps 691 mmHg 71%
    15:00 +28°C° 2 mm 1 mps 691 mmHg 76%
    16:00 +27°C° 2 mm 1 mps 690 mmHg 81%
    17:00 +26°C° 1.8 mm 1 mps 691 mmHg 84%
    18:00 +25°C° 1.8 mm 1 mps 691 mmHg 87%
    19:00 +24°C° 1.8 mm 1 mps 691 mmHg 90%
    20:00 +24°C° 1 mm 1 mps 692 mmHg 91%
    21:00 +24°C° 1 mm 1 mps 692 mmHg 91%
    22:00 +23°C° 1 mm 1 mps 693 mmHg 92%
    23:00 +23°C° 0.3 mm 1 mps 692 mmHg 93%

    16 November, Saturday

    Time Temperature Precipitation Wind Pressure Humidity
    00:00 +23°C° 0.3 mm 1 mps 692 mmHg 94%
    01:00 +21°C° 0.3 mm 2 mps 692 mmHg 96%
    02:00 +21°C° 0.1 mm 2 mps 692 mmHg 96%
    03:00 +22°C° 0.1 mm 1 mps 691 mmHg 97%
    04:00 +22°C° 0.1 mm 1 mps 691 mmHg 97%
    05:00 +22°C° 0 mm 1 mps 692 mmHg 96%
    06:00 +22°C° 0 mm 1 mps 692 mmHg 95%
    07:00 +23°C° 0 mm 1 mps 693 mmHg 94%
    08:00 +24°C° 0.3 mm 1 mps 693 mmHg 90%
    09:00 +25°C° 0.3 mm 2 mps 693 mmHg 85%
    10:00 +26°C° 0.3 mm 2 mps 694 mmHg 81%
    11:00 +26°C° 1.5 mm 2 mps 693 mmHg 81%
    12:00 +26°C° 1.5 mm 1 mps 692 mmHg 82%
    13:00 +27°C° 1.5 mm 1 mps 691 mmHg 83%
    14:00 +26°C° 1.6 mm 1 mps 691 mmHg 83%
    15:00 +26°C° 1.6 mm 1 mps 691 mmHg 84%
    16:00 +26°C° 1.6 mm 1 mps 691 mmHg 85%
    17:00 +25°C° 0.3 mm 1 mps 691 mmHg 87%
    18:00 +24°C° 0.3 mm 1 mps 691 mmHg 90%
    19:00 +23°C° 0.3 mm 1 mps 691 mmHg 93%
    20:00 +23°C° 0 mm 1 mps 692 mmHg 93%
    21:00 +23°C° 0 mm 1 mps 692 mmHg 94%
    22:00 +22°C° 0 mm 1 mps 693 mmHg 95%
    23:00 +22°C° 0 mm 1 mps 692 mmHg 96%

    17 November, Sunday

    Time Temperature Precipitation Wind Pressure Humidity
    00:00 +22°C° 0 mm 1 mps 692 mmHg 96%
    01:00 +22°C° 0 mm 1 mps 692 mmHg 97%
    02:00 +22°C° 0 mm 1 mps 692 mmHg 97%
    03:00 +21°C° 0 mm 1 mps 691 mmHg 96%
    04:00 +21°C° 0 mm 1 mps 691 mmHg 96%
    05:00 +22°C° 0 mm 1 mps 692 mmHg 95%
    06:00 +22°C° 0 mm 1 mps 692 mmHg 94%
    07:00 +23°C° 0 mm 1 mps 693 mmHg 92%
    08:00 +24°C° 0 mm 1 mps 693 mmHg 85%
    09:00 +26°C° 0 mm 1 mps 694 mmHg 79%
    10:00 +27°C° 0 mm 2 mps 694 mmHg 72%
    11:00 +28°C° 0 mm 2 mps 694 mmHg 68%
    12:00 +29°C° 0 mm 1 mps 693 mmHg 64%
    13:00 +30°C° 0 mm 1 mps 692 mmHg 59%
    14:00 +30°C° 0.3 mm 1 mps 692 mmHg 61%
    15:00 +30°C° 0.3 mm 1 mps 691 mmHg 63%
    16:00 +27°C° 0.3 mm 0 mps 691 mmHg 66%
    17:00 +26°C° 0.2 mm 0 mps 691 mmHg 71%
    18:00 +24°C° 0.2 mm 0 mps 691 mmHg 76%
    19:00 +23°C° 0.2 mm 0 mps 692 mmHg 82%
    20:00 +22°C° 1.7 mm 0 mps 692 mmHg 85%
    21:00 +24°C° 1.7 mm 1 mps 692 mmHg 89%
    22:00 +23°C° 1.7 mm 1 mps 693 mmHg 92%
    23:00 +23°C° 1.5 mm 1 mps 692 mmHg 93%

    18 November, Monday

    Time Temperature Precipitation Wind Pressure Humidity
    00:00 +23°C° 1.5 mm 1 mps 692 mmHg 95%
    01:00 +23°C° 1.5 mm 1 mps 692 mmHg 96%
    02:00 +22°C° 1.4 mm 1 mps 692 mmHg 95%
    03:00 +22°C° 1.4 mm 1 mps 692 mmHg 95%
    04:00 +22°C° 1.4 mm 1 mps 692 mmHg 94%
    05:00 +22°C° 0.8 mm 1 mps 693 mmHg 95%
    06:00 +22°C° 0.8 mm 1 mps 693 mmHg 95%
    07:00 +22°C° 0.8 mm 1 mps 694 mmHg 96%
    08:00 +22°C° 1.9 mm 1 mps 694 mmHg 96%
    09:00 +22°C° 1.9 mm 1 mps 694 mmHg 96%
    10:00 +22°C° 1.9 mm 1 mps 694 mmHg 96%
    11:00 +23°C° 0.9 mm 1 mps 694 mmHg 95%
    12:00 +23°C° 0.9 mm 1 mps 693 mmHg 93%
    13:00 +23°C° 0.9 mm 2 mps 693 mmHg 91%
    14:00 +24°C° 0 mm 1 mps 692 mmHg 88%
    15:00 +24°C° 0 mm 1 mps 692 mmHg 85%
    16:00 +23°C° 0 mm 0 mps 691 mmHg 83%
    17:00 +22°C° 0 mm 0 mps 692 mmHg 86%
    18:00 +23°C° 0 mm 1 mps 692 mmHg 89%
    19:00 +23°C° 0 mm 1 mps 693 mmHg 93%
    20:00 +22°C° 0.4 mm 1 mps 693 mmHg 93%
    21:00 +22°C° 0.4 mm 1 mps 694 mmHg 94%
    22:00 +20°C° 0.4 mm 0 mps 694 mmHg 95%
    23:00 +20°C° 0 mm 0 mps 694 mmHg 95%
    Show more